User: anonymous   Login
Location: Dal�� Lhota
(48.7500°N, 14.0167°E)
Time: 11:21:09
(UTC+00:00)
Language:

Resurs 01 Rocket - Orbit

View from above orbital plane
View from above orbital plane
View from above satellite
View from above satellite

Ground track
Ground track

The orbit data is extracted from the following two-line orbital elements,

1 23343U 94074B   21163.14129580  .00000023  00000-0  10523-4 0  9992
2 23343  97.9461 217.8568 0008257  75.2566 342.7268 14.76883813431710
Epoch (UTC): 12 June 2021 03:23:27
Eccentricity: 0.0008257
inclination: 97.9461°
perigee height: 633 km
apogee height: 645 km
right ascension of ascending node: 217.8568°
argument of perigee: 75.2566°
revolutions per day: 14.76883813
mean anomaly at epoch: 342.7268°
orbit number at epoch: 43171

The dashed part of the orbit path shows where the satellite is in the earth's shadow,  

DLR